Weather History for St. Louis, MO

Change the Weather History Date:

Tuesday, January 29, 2013

  Actual Average Record
Temperature  
Mean Temperature 61 °F 33 °F  
Max Temperature 68 °F 41 °F 73 °F (2008)
Min Temperature 54 °F 24 °F -8 °F (1966)
Degree Days  
Heating Degree Days 4 32  
Month to date heating degree days 837 964  
Since 1 July heating degree days 2436 2729  
Cooling Degree Days 0 0  
Month to date cooling degree days 0 0  
Year to date cooling degree days 0 0  
Growing Degree Days 10 (Base 50)    
Moisture  
Dew Point 56 °F    
Average Humidity 81    
Maximum Humidity 93    
Minimum Humidity 68    
Precipitation  
Precipitation 1.44 in 0.07 in 1.44 in (2013)
Month to date precipitation 2.97 2.25  
Year to date precipitation 2.97 2.25  
Snow  
Snow 0.00 in 0.10 in 4.80 in (1956)
Month to date snowfall 0.8 5.2  
Since 1 July snowfall 2.9 10.3  
Snow Depth 0.00 in    
Sea Level Pressure  
Sea Level Pressure 29.60 in    
Wind  
Wind Speed 12 mph (SSW)    
Max Wind Speed 25 mph    
Max Gust Speed 36 mph    
Visibility 6 miles    
Events Rain , Thunderstorm    
T = Trace of Precipitation, MM = Missing Value Source: NWS Daily Summary

Daily Weather History Graph

Daily Weather History Graph

Search for Another Location

Airport:

Trip Planner

Search our weather history database for the weather conditions in past years. The results will help you decide how hot, cold, wet, or windy it might be!

Date:

Astronomy

Jan. 29, 2013 Rise Set
Actual Time 7:09 AM CST 5:20 PM CST
Civil Twilight 6:41 AM CST 5:48 PM CST
Nautical Twilight 6:09 AM CST 6:20 PM CST
Astronomical Twilight 5:38 AM CST 6:51 PM CST
Moon 8:13 PM CST (1/29) 8:08 AM CST (1/29)
Length of Visible Light 11h 06m
Length of Day
10h 10m
Waning Gibbous, 93% of the Moon is Illuminated
Jan 29
Waning Gibbous
Feb 3
Last Quarter
Feb 10
New
Feb 17
First Quarter
Feb 25
Full

Hourly Weather History & Observations

Time (CST) Temp. Dew Point Humidity Pressure Visibility Wind Dir Wind Speed Gust Speed Precip Events Conditions
12:51 AM 64.0 °F 57.9 °F 80% 29.81 in 10.0 mi South 18.4 mph 23.0 mph N/A   Mostly Cloudy
1:51 AM 64.9 °F 57.9 °F 78% 29.79 in 10.0 mi South 16.1 mph 25.3 mph N/A   Mostly Cloudy
2:51 AM 66.0 °F 57.9 °F 75% 29.78 in 10.0 mi South 12.7 mph 21.9 mph N/A   Mostly Cloudy
3:51 AM 66.0 °F 57.9 °F 75% 29.76 in 10.0 mi South 15.0 mph 23.0 mph N/A   Mostly Cloudy
4:51 AM 64.9 °F 57.9 °F 78% 29.75 in 10.0 mi South 13.8 mph 21.9 mph N/A   Overcast
5:51 AM 66.0 °F 57.9 °F 75% 29.75 in 9.0 mi South 11.5 mph - N/A   Overcast
6:51 AM 66.2 °F 57.2 °F 73% 29.75 in 10.0 mi South 12.7 mph 23.0 mph N/A   Overcast
7:41 AM 66.2 °F 57.2 °F 73% 29.75 in 10.0 mi South 9.2 mph - N/A   Overcast
7:51 AM 66.9 °F 57.9 °F 73% 29.73 in 10.0 mi South 12.7 mph - N/A   Overcast
8:51 AM 66.9 °F 57.9 °F 73% 29.72 in 9.0 mi South 17.3 mph - N/A   Overcast
9:51 AM 68.0 °F 57.9 °F 70% 29.70 in 9.0 mi South 13.8 mph 27.6 mph N/A   Overcast
10:02 AM 68.0 °F 57.2 °F 68% 29.72 in 10.0 mi South 17.3 mph 21.9 mph N/A   Overcast
10:29 AM 68.0 °F 57.2 °F 68% 29.71 in 10.0 mi South 18.4 mph 25.3 mph N/A   Overcast
10:51 AM 68.0 °F 57.9 °F 70% 29.68 in 10.0 mi South 19.6 mph 28.8 mph N/A   Overcast
11:49 AM 64.4 °F 59.0 °F 83% 29.67 in 4.0 mi South 11.5 mph - 0.00 in Rain Light Rain
11:51 AM 64.9 °F 59.0 °F 81% 29.65 in 3.0 mi SSE 9.2 mph - 0.00 in Rain Light Rain
12:51 PM 64.0 °F 60.1 °F 87% 29.61 in 3.0 mi SSE 9.2 mph - 0.01 in Rain Light Rain
12:57 PM 64.4 °F 60.8 °F 88% 29.61 in 5.0 mi South 10.4 mph - 0.00 in Rain Light Rain
1:51 PM 66.0 °F 59.0 °F 78% 29.53 in 8.0 mi SSE 13.8 mph - 0.00 in   Overcast
2:51 PM 66.9 °F 57.9 °F 73% 29.51 in 10.0 mi South 15.0 mph 25.3 mph 0.00 in   Overcast
3:51 PM 68.0 °F 57.9 °F 70% 29.47 in 10.0 mi South 17.3 mph 25.3 mph 0.00 in   Overcast
4:33 PM 64.4 °F 55.4 °F 73% 29.51 in 8.0 mi WNW 25.3 mph 35.7 mph 0.00 in Rain Light Rain
4:41 PM 59.0 °F 55.4 °F 88% 29.52 in 2.0 mi NW 20.7 mph 25.3 mph 0.04 in Rain , Thunderstorm Heavy Thunderstorms and Rain
4:45 PM 57.2 °F 55.4 °F 94% 29.53 in 1.5 mi WNW 21.9 mph 27.6 mph 0.12 in Rain , Thunderstorm Heavy Thunderstorms and Rain
4:51 PM 57.9 °F 55.0 °F 90% 29.52 in 2.0 mi NW 17.3 mph 27.6 mph 0.20 in Rain , Thunderstorm Heavy Thunderstorms and Rain
5:06 PM 57.2 °F 53.6 °F 88% 29.52 in 2.0 mi NW 16.1 mph 25.3 mph 0.08 in Rain , Thunderstorm Thunderstorms and Rain
5:35 PM 55.4 °F 53.6 °F 94% 29.56 in 2.5 mi NW 6.9 mph - 0.20 in Rain , Thunderstorm Thunderstorms and Rain
5:45 PM 55.4 °F 53.6 °F 94% 29.54 in 3.0 mi NW 8.1 mph - 0.25 in Rain Rain
5:51 PM 55.9 °F 53.1 °F 90% 29.52 in 3.0 mi North 8.1 mph - 0.28 in Rain Rain
6:16 PM 55.4 °F 53.6 °F 94% 29.51 in 6.0 mi NE 11.5 mph - 0.04 in Rain Light Rain
6:51 PM 55.9 °F 53.1 °F 90% 29.50 in 4.0 mi NE 6.9 mph - 0.13 in Rain Rain
7:23 PM 55.4 °F 53.6 °F 94% 29.54 in 3.0 mi NW 5.8 mph - 0.13 in Rain Rain
7:30 PM 55.4 °F 53.6 °F 94% 29.53 in 2.5 mi NW 6.9 mph - 0.18 in Rain Rain
7:37 PM 55.4 °F 53.6 °F 94% 29.54 in 2.5 mi NNW 6.9 mph - 0.21 in Rain , Thunderstorm Thunderstorms and Rain
7:51 PM 55.0 °F 53.1 °F 93% 29.52 in 2.5 mi NW 10.4 mph - 0.29 in Rain , Thunderstorm Thunderstorms and Rain
8:51 PM 55.0 °F 52.0 °F 89% 29.54 in 2.5 mi WNW 3.5 mph - 0.25 in Rain , Thunderstorm Thunderstorms and Rain
9:10 PM 53.6 °F 51.8 °F 94% 29.56 in 3.0 mi Calm Calm - 0.12 in Rain , Thunderstorm Light Thunderstorms and Rain
9:34 PM 53.6 °F 53.6 °F 100% 29.53 in 3.0 mi Calm Calm - 0.18 in Rain Light Rain
9:51 PM 54.0 °F 52.0 °F 93% 29.49 in 6.0 mi Calm Calm - 0.20 in Rain Light Rain
10:51 PM 54.0 °F 52.0 °F 93% 29.46 in 7.0 mi ESE 6.9 mph - 0.05 in Rain Light Rain
11:51 PM 54.0 °F 51.1 °F 90% 29.45 in 9.0 mi SE 10.4 mph - 0.03 in Rain Light Rain